Theta_e
283 283 286 288 289 288 288 288 287 285 286 285 284 285 287 283 282 282 284 279 280 280 282 285 286 284 286 287 287 286 285 286 285 285 286 287 289 289 289 290 289 289 290 290 290 289 289 287 287 287 287 287 287 289 290 290 289 290 290 291 290 291 291 291 290 289 288 286 286 285 285 285 284 284 283 283 282 282 282 282 282 281 281 281 281 280 280
283 282 285 287 287 286 286 287 288 288 286 286 286 287 288 286 285 286 284 281 282 283 285 287 289 287 286 286 285 286 288 288 287 286 286 287 288 289 291 291 291 292 292 292 291 291 290 289 288 287 288 288 288 288 288 288 289 289 289 290 290 290 290 290 288 287 286 285 285 285 285 284 284 283 283 282 282 281 281 281 281 281 280 280 280 280 280
281 282 283 284 286 285 284 285 287 288 288 288 288 288 287 286 285 286 284 283 285 285 285 288 288 286 285 284 285 287 287 287 287 287 288 288 288 289 290 291 292 292 292 292 291 291 291 290 289 289 289 289 288 288 288 287 287 287 288 288 289 289 289 288 286 285 285 285 284 284 284 284 283 283 282 282 281 281 281 280 280 280 280 279 279 279 279
275 280 281 281 283 283 283 283 285 286 287 285 287 286 288 286 286 286 282 283 285 286 285 286 288 288 289 288 289 290 287 288 288 289 290 289 290 290 290 291 291 291 291 292 291 292 291 291 290 289 289 289 288 288 287 287 286 285 286 287 287 287 286 285 285 285 285 284 284 284 283 283 283 282 282 281 281 280 280 279 279 279 279 279 279 278 278
273 279 279 280 280 280 279 282 285 287 288 289 289 290 290 290 290 286 284 286 287 287 288 291 292 291 289 288 289 290 289 288 289 290 290 291 291 291 291 291 291 291 292 292 293 292 291 291 290 290 290 288 288 288 287 287 285 286 287 287 287 286 285 285 285 285 284 284 284 283 283 282 282 281 281 281 280 280 280 279 278 278 278 278 278 278 278
276 276 279 281 280 274 279 289 290 289 287 287 286 287 289 290 291 290 292 292 288 289 290 291 292 291 290 292 292 291 292 291 288 289 290 291 292 290 291 292 292 293 292 292 292 291 291 291 290 289 288 289 288 287 287 286 286 286 286 286 286 285 285 285 285 284 284 284 283 283 282 281 281 281 281 280 280 279 278 278 278 277 277 277 277 277 277
277 276 280 280 275 277 288 288 291 291 291 290 289 290 290 290 291 292 291 292 290 289 292 293 294 294 292 290 289 289 288 290 291 292 291 291 291 291 291 291 291 292 292 292 289 289 290 290 288 288 287 288 287 287 287 286 286 286 286 285 285 285 284 284 284 284 283 283 282 282 281 281 280 280 280 279 278 278 278 278 277 277 277 276 276 276 276
276 275 279 273 277 282 284 284 284 289 291 290 289 287 289 290 290 291 290 292 292 290 290 291 286 287 287 286 286 288 289 289 291 290 291 292 291 290 292 292 293 292 292 292 292 292 288 289 288 289 288 287 287 287 286 286 285 286 286 285 285 285 284 284 284 284 283 282 282 281 281 280 280 280 279 278 278 276 276 276 276 276 275 276 275 275 275
277 275 278 279 280 281 283 283 283 285 284 284 286 283 286 291 291 290 290 291 292 291 290 289 285 284 286 287 290 288 287 288 288 291 292 293 292 293 292 291 292 292 292 291 291 288 288 289 288 288 288 287 287 286 286 286 286 285 285 285 285 284 285 284 284 283 283 282 281 281 280 280 279 279 278 277 276 276 276 276 276 275 275 274 274 274 273
275 275 272 272 275 275 283 284 284 288 288 290 290 287 286 290 291 292 291 290 291 291 291 290 285 286 287 287 290 292 290 290 291 290 289 289 289 288 287 286 287 288 287 287 287 290 288 288 288 288 287 287 287 286 285 285 285 285 285 285 285 285 285 284 284 283 283 282 281 280 280 280 279 279 277 276 276 276 277 276 275 275 274 274 273 273 274
275 274 276 276 275 280 283 285 287 288 287 290 288 284 283 288 289 291 291 291 291 291 290 289 287 288 286 287 291 293 290 294 292 290 289 289 288 287 286 287 287 286 288 289 288 288 288 288 287 287 287 287 287 286 285 285 285 285 285 285 285 285 285 284 283 283 282 281 281 280 280 280 279 278 277 277 275 275 275 275 274 273 273 274 273 273 274
280 280 276 278 277 279 282 286 286 288 288 292 289 278 281 285 289 290 290 290 291 291 291 289 288 288 286 288 292 291 291 289 288 289 290 288 286 285 284 285 285 286 286 287 286 288 288 289 287 287 287 287 287 287 286 285 285 285 286 287 287 286 285 283 283 282 281 281 280 280 280 279 278 277 275 274 274 274 273 274 273 273 274 274 274 274 275
279 282 274 272 278 281 280 283 285 287 292 291 283 279 284 289 287 288 291 291 292 291 288 288 287 289 293 291 288 284 285 287 287 284 282 283 283 284 284 284 286 285 286 289 289 289 288 287 287 287 287 287 287 287 286 285 285 287 287 286 285 284 283 282 281 281 280 280 279 279 278 277 277 275 275 275 274 273 273 273 273 273 274 274 274 274 275
280 280 280 278 276 279 283 281 286 289 289 279 281 289 284 286 286 285 289 290 287 288 288 288 290 292 288 286 283 284 285 285 285 283 283 283 284 283 282 283 284 284 285 286 286 285 284 286 287 287 287 287 287 286 285 286 286 284 285 284 283 282 281 281 280 279 278 278 277 277 275 275 275 274 273 274 274 273 273 273 273 273 273 274 274 274 274
272 270 276 271 275 283 287 287 284 285 285 286 286 284 284 284 284 286 285 288 286 288 287 288 290 288 287 287 288 286 282 283 283 282 282 282 282 282 283 284 283 284 285 285 284 283 283 285 286 286 287 287 286 286 286 286 284 284 283 282 281 281 280 279 278 277 276 276 275 275 275 275 275 274 273 273 273 273 273 273 274 273 274 274 273 273 273
281 279 278 279 284 285 288 291 287 288 288 288 285 287 288 285 283 284 285 284 286 287 289 287 287 286 286 285 285 285 284 282 282 281 281 281 281 281 281 281 282 282 283 282 282 281 282 283 285 286 287 287 286 286 285 282 282 281 281 280 280 279 278 277 276 275 274 274 274 274 274 274 274 273 273 272 272 273 273 273 273 273 273 273 273 272 272
283 282 283 284 285 288 289 288 289 292 287 282 284 285 286 287 285 282 285 286 284 286 286 285 285 285 285 285 284 285 284 282 282 282 281 280 280 280 280 281 280 280 282 281 281 280 281 281 282 283 283 286 284 284 281 280 280 280 279 279 278 277 277 275 275 273 273 273 273 273 273 274 273 273 272 272 272 272 273 273 273 273 272 272 272 272 272
281 282 283 283 281 283 285 282 282 283 284 282 281 284 288 286 283 284 286 284 284 283 284 286 283 284 283 284 284 282 281 281 280 280 280 279 278 278 278 279 278 279 280 280 280 280 279 280 280 280 281 282 284 282 279 280 279 279 278 278 277 276 275 274 273 272 272 271 271 272 272 273 273 274 273 273 273 273 273 274 273 272 272 272 272 272 271
285 284 282 283 284 285 285 282 281 280 280 282 282 284 285 284 282 282 282 283 282 283 284 286 285 283 282 283 282 281 281 280 280 279 279 279 277 278 278 277 277 279 279 280 279 279 279 278 279 279 280 280 280 278 278 279 279 278 278 277 277 275 274 273 272 272 272 272 271 271 271 271 272 273 273 274 274 273 273 273 273 272 272 271 271 271 271
285 285 282 283 280 280 281 281 284 285 284 281 281 282 282 282 281 282 281 281 282 281 283 283 285 283 282 282 282 281 280 281 280 279 278 278 278 275 275 275 275 276 277 278 277 277 278 277 277 277 277 275 276 277 277 278 277 277 277 277 276 274 273 273 272 272 273 272 272 271 271 272 272 272 273 274 274 273 273 273 273 272 272 271 271 271 271
282 280 280 278 283 284 284 282 282 282 283 283 281 282 282 283 283 282 281 280 281 281 282 281 282 282 282 281 282 282 280 279 278 279 278 277 276 275 276 274 274 276 275 275 275 276 275 274 274 274 273 273 275 277 277 277 277 277 277 275 275 273 272 272 271 272 272 272 272 271 271 271 271 272 273 274 274 274 273 273 274 274 273 273 273 273 272
282 286 284 282 284 280 285 286 289 285 282 283 283 282 282 282 283 282 283 281 279 280 279 280 281 283 283 280 280 280 280 279 278 277 276 275 274 274 273 273 272 272 272 273 273 273 273 272 272 272 271 272 273 274 275 276 277 277 275 274 273 272 272 272 271 271 271 271 270 271 271 270 270 270 273 275 273 273 271 274 275 275 276 272 273 271 270
285 285 285 288 289 288 290 292 287 283 282 282 283 283 283 281 281 282 283 283 281 281 279 278 280 280 281 280 279 279 279 279 278 277 276 275 274 274 273 273 272 272 271 271 271 271 270 270 270 270 270 270 271 271 273 274 276 276 275 274 273 272 271 271 271 271 271 270 270 269 270 270 270 270 271 273 275 275 274 275 276 276 276 275 274 273 271
284 284 287 287 285 286 284 282 282 282 281 282 281 280 280 281 280 279 280 281 282 279 278 277 276 278 278 277 278 278 276 275 275 275 274 274 273 272 272 272 271 271 271 271 272 271 270 269 268 269 269 269 270 270 271 272 273 274 274 275 274 272 272 271 271 270 270 269 269 269 269 270 270 271 271 271 273 275 276 277 277 277 277 276 276 275 274
286 282 282 279 278 279 279 280 281 280 279 281 282 281 280 280 279 279 280 279 277 280 280 279 277 275 277 276 277 278 277 274 274 274 273 273 273 273 272 271 271 271 271 271 270 269 268 268 268 268 268 268 268 269 269 270 271 271 272 273 273 272 271 270 270 270 269 269 268 269 268 269 269 271 272 272 271 271 274 277 278 278 277 277 276 276 275
280 280 280 280 280 280 281 282 282 279 278 279 279 277 278 278 277 278 277 277 276 275 277 276 277 275 275 277 276 273 275 274 274 273 273 273 272 272 271 272 271 271 269 269 268 268 267 267 268 267 268 267 267 268 268 269 269 270 270 270 270 270 270 270 270 269 269 269 268 268 269 269 270 271 272 273 272 271 271 273 274 274 276 277 276 277 276
281 283 285 284 282 282 283 283 283 279 277 278 279 277 275 275 275 274 273 272 271 272 272 273 273 272 273 272 273 273 275 273 272 273 272 271 272 272 271 270 270 269 268 268 268 267 268 267 267 267 268 267 266 265 266 267 268 268 268 269 267 268 269 269 269 269 269 269 268 268 268 269 270 271 272 272 272 271 271 271 270 268 269 271 274 276 274
282 279 280 284 282 283 282 278 279 278 278 277 277 277 274 274 276 276 276 276 275 272 272 269 272 274 276 273 273 274 273 273 274 272 272 273 271 268 267 267 268 267 267 267 267 267 267 267 267 267 267 266 265 265 265 265 266 267 266 267 266 267 267 268 268 268 267 267 267 267 267 268 270 271 271 270 270 271 271 271 270 268 267 268 268 273 274
278 277 278 279 281 280 278 278 278 278 275 274 274 273 275 276 275 275 274 274 272 272 275 271 268 269 273 271 272 273 272 272 274 275 275 272 269 268 267 266 266 265 266 266 265 265 266 266 266 266 267 265 264 264 265 266 267 267 266 266 266 266 266 265 266 266 265 265 265 266 268 267 268 268 269 269 269 270 270 270 269 268 267 266 264 265 270
276 277 279 279 279 280 280 279 278 277 276 275 276 273 274 277 276 274 274 273 272 275 272 270 271 271 268 270 271 273 275 275 275 273 272 270 269 268 268 268 269 269 268 267 265 264 265 265 265 265 266 263 264 263 263 263 265 264 265 265 265 265 265 264 264 265 264 265 263 267 266 266 267 267 267 267 267 267 268 268 268 267 265 265 266 265 265
278 278 279 279 279 279 279 277 275 274 274 272 274 275 273 274 275 275 274 273 272 273 270 269 270 270 270 270 268 267 268 270 270 270 269 269 268 268 268 270 273 274 272 269 266 265 263 264 264 264 264 262 262 262 263 264 263 262 263 263 262 265 266 267 266 264 264 263 263 264 264 265 265 266 266 266 266 266 267 267 266 266 265 264 265 265 265
278 277 276 277 277 276 275 275 276 275 274 271 274 274 273 274 275 275 272 272 271 270 269 270 271 271 270 267 266 267 268 269 269 269 268 268 268 267 267 266 266 266 265 264 264 265 266 266 265 265 262 261 263 262 263 263 262 263 263 264 263 262 264 266 264 265 263 263 263 263 263 264 264 265 265 265 265 265 266 266 265 265 265 264 264 264 264
280 278 276 275 276 276 275 273 276 273 272 273 273 272 272 272 274 274 273 272 271 272 273 272 272 272 271 270 270 270 269 269 271 272 271 270 269 266 265 263 263 264 265 266 265 265 266 267 268 265 261 261 262 262 262 261 261 263 262 262 261 262 263 265 264 263 262 262 262 263 263 263 263 264 265 265 265 265 265 265 265 265 264 264 264 264 263
280 281 280 277 278 280 279 277 275 275 273 272 272 272 272 272 273 273 272 271 271 271 271 271 271 271 271 271 270 269 271 274 274 273 271 270 269 268 266 265 265 265 265 265 265 265 265 265 264 263 262 263 263 262 261 261 261 261 260 260 261 261 262 262 264 263 262 262 262 263 263 263 263 264 264 265 265 265 265 264 265 264 263 263 263 262 263
274 272 271 270 270 272 275 279 279 277 276 274 272 270 270 271 271 270 269 269 268 267 268 269 269 270 271 271 271 270 270 271 271 270 269 269 268 267 265 266 266 266 267 267 266 266 264 263 262 261 260 261 260 259 260 260 260 259 258 259 260 260 261 261 262 262 262 262 262 262 262 262 263 264 264 265 265 265 264 264 264 264 263 262 262 261 262
271 271 269 267 266 268 269 269 272 275 275 272 269 267 266 265 265 266 266 266 265 265 265 266 268 269 269 269 269 269 268 268 268 268 268 268 266 265 265 266 265 266 266 268 267 264 263 259 261 262 258 257 257 258 259 258 257 258 258 259 259 260 260 261 261 262 262 261 262 262 262 263 263 263 263 264 264 264 264 264 263 263 263 262 261 260 260
264 264 264 264 265 263 262 263 267 268 266 266 265 264 263 262 262 263 263 263 263 262 262 263 265 266 266 265 266 266 267 266 266 265 265 265 264 264 264 264 265 264 264 268 267 262 261 258 261 262 261 257 257 256 257 261 257 257 257 258 258 259 259 259 260 260 261 261 262 261 262 262 262 262 263 263 263 263 263 263 263 263 262 262 262 260 260
261 260 260 261 261 261 260 260 261 263 263 261 260 260 260 260 260 261 261 261 260 260 261 261 262 263 263 264 265 265 264 263 262 261 261 262 261 262 264 265 266 264 265 267 262 258 259 258 261 260 257 256 256 256 258 261 261 257 257 257 258 258 259 259 259 260 260 260 260 261 261 261 261 261 261 262 263 263 263 262 262 262 262 261 261 261 260
260 260 260 260 260 260 260 259 258 257 258 259 259 259 259 259 259 260 260 259 259 259 258 260 261 262 262 262 262 263 262 260 259 259 259 260 258 259 262 264 264 264 264 262 261 262 261 261 260 256 256 256 256 256 258 260 261 257 256 256 256 257 258 259 259 259 260 260 259 260 260 260 261 261 261 261 261 262 262 262 262 262 261 261 260 260 261
257 257 257 257 257 257 258 258 257 256 256 256 256 256 257 257 258 258 258 258 258 257 257 258 259 260 259 259 259 259 259 258 258 258 257 257 257 259 261 263 261 260 259 260 259 258 260 260 258 255 255 257 256 255 257 259 260 258 256 256 256 257 257 258 258 258 259 259 260 261 260 260 261 261 261 261 261 261 262 262 262 262 262 261 261 260 261
255 256 256 255 255 255 255 255 256 256 255 254 254 255 255 255 256 257 256 256 256 256 256 257 257 257 257 256 256 256 256 256 256 255 255 255 258 259 259 263 259 255 258 259 258 258 259 259 257 257 257 257 257 258 256 259 259 256 256 256 256 257 257 258 258 259 259 259 260 260 260 260 260 261 261 261 261 261 262 262 262 262 262 261 260 260 260
254 253 253 253 254 253 253 254 254 255 255 254 253 253 253 254 255 255 255 255 255 255 255 255 256 256 256 255 254 255 254 254 253 254 254 255 256 256 258 260 255 255 259 258 258 257 257 255 258 259 259 258 257 259 259 259 256 256 256 256 257 257 257 257 258 258 258 259 259 259 259 259 260 260 260 261 261 261 261 261 262 262 261 261 260 260 260
252 251 252 252 252 252 252 253 253 253 253 254 253 252 253 252 253 254 253 254 254 254 254 254 255 255 254 253 253 254 254 253 253 254 254 254 255 256 258 256 256 257 258 257 257 254 256 257 257 257 258 259 258 259 259 258 257 257 255 256 257 257 257 257 257 257 257 257 258 258 258 259 259 260 260 260 260 260 260 260 261 261 261 261 261 260 260
251 250 250 251 250 251 251 253 252 253 253 254 253 253 253 252 252 252 252 252 253 253 253 253 254 254 254 253 253 253 254 254 253 253 254 255 254 254 253 252 253 255 257 256 256 256 255 255 254 257 258 258 259 259 259 256 256 255 254 255 256 256 256 256 257 257 257 258 258 258 258 259 259 260 260 260 260 260 260 260 260 261 261 261 261 260 259
250 250 250 250 250 250 250 252 251 251 252 252 252 253 253 251 251 251 251 251 251 251 253 252 253 253 253 253 253 253 253 253 253 252 253 255 258 256 253 255 255 255 256 257 256 256 256 255 257 258 258 259 259 259 258 257 257 254 253 255 255 255 255 256 256 256 257 257 257 258 258 259 259 259 260 260 260 260 260 260 260 260 260 260 259 259 258
249 249 249 250 249 249 249 250 250 250 250 251 252 253 253 251 250 250 249 249 249 251 252 252 251 251 252 251 252 252 252 252 252 252 253 254 255 254 254 255 254 256 256 257 254 255 254 257 258 258 258 259 259 257 254 254 254 253 253 254 254 255 255 255 255 256 256 256 257 257 258 258 258 259 259 259 260 260 261 260 260 260 260 260 259 259 258
249 249 248 248 248 248 248 247 249 251 252 252 251 250 251 250 249 249 249 248 247 247 247 249 249 250 250 250 249 250 251 252 252 253 253 250 251 252 254 255 255 255 256 254 255 255 255 256 257 258 258 258 258 255 253 252 253 252 253 253 254 255 255 255 256 256 256 256 257 258 259 259 259 259 259 259 260 260 260 260 260 259 259 259 259 258 258
248 248 248 247 247 247 247 248 249 249 248 248 248 249 249 248 248 248 248 248 248 247 247 247 249 248 248 248 246 247 249 248 251 253 250 247 250 250 252 251 253 255 255 256 255 256 257 257 257 258 258 258 257 253 252 252 251 252 253 254 255 255 255 255 256 257 257 257 258 258 259 260 260 260 260 260 260 260 260 260 259 259 259 258 257 258 257
246 245 246 246 246 246 247 249 249 250 249 249 248 249 249 248 247 248 248 248 247 248 248 247 248 248 247 248 247 248 248 249 251 251 252 252 251 251 251 252 253 254 254 254 253 253 255 256 257 257 258 257 255 253 252 253 253 255 255 255 255 256 257 257 257 257 258 259 259 260 260 260 260 260 260 260 259 259 259 259 259 259 258 258 258 257 257
245 246 246 246 246 246 246 246 247 248 248 248 248 248 247 246 248 249 250 249 249 250 249 248 248 249 249 249 247 246 245 245 248 249 249 249 249 250 251 251 252 254 254 254 251 253 254 255 255 255 256 254 254 253 254 255 255 255 254 255 255 255 256 257 258 259 258 258 259 259 259 259 260 259 259 259 259 258 258 258 258 258 257 258 258 257 257
246 247 247 247 247 247 246 246 247 248 246 247 246 246 246 245 246 248 248 248 248 248 248 248 248 249 249 247 247 248 245 245 245 249 250 250 250 251 252 252 252 253 253 253 252 251 250 250 251 253 253 253 252 253 253 253 253 253 254 253 253 254 254 256 256 257 257 258 258 258 259 259 259 259 259 258 258 258 258 258 257 257 257 257 257 257 257
247 247 246 246 246 246 247 247 247 246 245 246 245 244 245 245 246 247 247 249 248 247 247 247 247 248 248 248 249 248 247 248 249 249 250 250 249 249 250 252 251 251 250 249 250 249 249 250 252 253 253 251 251 251 254 255 253 253 253 254 254 254 255 255 255 256 257 257 257 257 258 258 258 258 258 258 258 257 257 257 257 257 257 257 257 257 257
Wind_Speed
4 5 8 11 12 11 10 13 11 10 8 8 12 16 16 6 10 19 6 5 7 6 6 7 10 4 1 4 5 3 4 2 1 1 3 4 6 5 6 8 7 8 9 9 8 8 8 6 7 7 6 6 4 4 4 6 6 7 7 7 7 7 7 8 7 7 7 6 6 7 8 8 8 8 7 7 7 7 7 6 6 7 7 8 9 8 6
4 3 9 8 11 6 7 10 12 12 11 12 14 16 10 9 13 11 1 6 14 4 6 8 8 0 3 3 3 5 5 4 3 2 4 6 6 7 8 9 9 9 10 8 9 8 8 10 9 8 7 7 7 7 7 6 7 6 7 8 8 8 8 7 7 7 7 7 7 8 9 9 8 8 8 8 8 8 7 7 7 7 7 6 7 9 8
5 0 2 3 9 9 6 8 12 14 15 16 19 16 12 8 12 11 8 10 17 5 5 7 6 4 3 4 5 6 5 4 4 5 7 8 8 9 8 8 10 8 8 8 8 9 10 10 10 9 8 8 7 7 8 8 8 7 7 8 7 8 8 7 7 7 7 7 8 9 8 8 8 9 9 8 8 8 7 7 8 7 8 8 7 7 7
2 1 4 2 3 3 7 8 13 17 19 19 16 14 10 9 18 11 4 11 16 2 2 7 10 9 9 10 10 9 4 5 5 6 9 8 9 9 10 10 7 8 10 10 12 13 12 10 9 9 10 9 9 10 8 8 7 7 7 7 8 7 7 7 7 8 8 8 9 8 8 9 9 8 8 8 8 8 8 8 7 6 8 7 7 7 7
3 1 3 6 4 1 4 11 21 19 13 12 12 16 18 21 17 10 13 23 1 5 4 13 14 12 10 9 10 10 6 7 7 8 9 10 9 9 8 8 9 11 12 14 13 10 7 10 11 11 9 8 11 9 8 7 6 8 8 8 7 7 7 8 9 8 9 10 9 9 9 9 8 8 8 8 8 8 8 7 7 8 7 8 7 6 7
3 1 5 5 6 4 16 17 10 15 16 16 15 17 16 15 13 17 19 16 4 6 10 15 15 13 11 14 11 6 8 7 7 9 10 11 10 7 7 9 11 12 10 9 9 9 9 9 10 9 10 11 8 6 7 7 9 8 9 7 8 8 8 8 9 9 9 9 10 9 8 8 8 9 8 9 7 6 7 6 8 8 6 8 7 7 7
6 3 6 7 8 16 14 9 15 17 17 19 22 18 13 16 18 19 19 18 13 11 14 16 18 16 9 0 4 5 7 7 8 10 11 11 10 10 10 9 9 10 9 8 6 8 11 9 7 8 7 7 7 8 9 9 8 9 8 8 8 8 9 9 9 9 9 9 9 9 9 9 8 8 8 7 7 7 7 8 9 9 9 8 7 6 7
5 3 8 7 17 6 3 2 1 11 15 14 12 13 16 15 16 18 21 22 16 12 14 11 2 1 3 3 5 9 9 8 9 8 11 11 8 9 11 11 10 8 10 12 12 11 5 7 8 9 10 8 9 8 7 8 8 8 8 9 9 8 9 10 10 10 10 10 9 9 10 9 9 9 8 8 9 7 6 6 5 6 5 6 8 7 6
9 7 11 11 4 5 5 1 5 7 8 7 12 12 16 18 17 16 16 15 13 12 10 9 4 1 2 4 9 6 8 8 9 13 14 10 8 10 7 4 7 7 7 7 7 5 7 9 10 10 8 9 8 8 9 8 9 9 8 9 9 10 10 10 10 10 10 11 11 10 10 10 10 9 9 8 6 6 8 7 8 7 7 6 6 7 7
5 7 2 2 5 8 18 4 1 2 6 10 10 9 13 8 14 16 17 17 18 17 14 12 5 2 2 10 14 9 7 11 13 12 8 6 6 5 4 4 4 4 5 5 5 8 8 9 9 8 9 11 10 10 10 9 10 9 10 10 9 10 10 10 10 10 10 10 11 10 10 11 11 8 6 5 6 6 9 9 8 7 7 7 5 5 6
4 4 8 9 10 15 1 9 10 8 6 10 7 3 15 8 10 11 15 16 16 15 14 12 8 6 8 15 12 9 7 13 10 6 7 10 8 6 6 5 5 5 6 6 6 6 7 9 9 9 10 11 11 10 9 10 10 11 12 11 11 12 11 10 10 9 9 9 9 11 11 10 10 11 9 9 6 5 6 6 8 7 7 8 7 4 4
10 10 8 12 6 6 4 8 7 11 10 11 7 2 13 3 13 13 13 15 17 16 15 10 11 13 12 12 13 5 7 4 1 5 7 5 5 5 4 4 4 3 3 5 4 7 10 10 8 10 11 11 10 10 10 10 11 12 14 15 12 9 8 9 9 9 8 10 9 10 11 9 8 8 7 8 7 7 6 6 8 7 6 7 8 6 5
6 7 6 3 7 4 4 5 4 11 13 12 8 18 2 5 6 6 11 15 16 11 7 9 11 13 14 6 2 2 1 2 1 1 2 2 3 5 4 4 1 3 4 6 9 9 6 7 9 9 10 11 11 10 10 11 15 15 9 6 7 8 7 8 8 8 7 8 10 7 6 8 8 7 7 8 8 8 9 7 7 7 7 6 7 6 5
11 11 10 9 4 6 7 0 10 10 10 5 18 7 1 5 5 4 9 9 4 5 11 10 11 10 5 2 1 2 3 1 0 1 3 2 1 1 1 2 1 3 4 3 3 3 4 7 8 9 9 10 8 8 9 13 10 4 6 7 7 7 8 8 7 7 7 6 6 7 7 9 9 8 5 6 7 8 7 8 9 8 7 6 7 6 4
6 3 5 1 10 7 11 11 3 7 7 7 4 2 0 1 3 7 4 7 6 7 7 10 11 5 1 4 5 1 1 2 2 2 3 3 3 4 4 3 3 2 4 3 3 3 3 6 6 8 9 9 8 8 11 8 4 6 6 7 8 8 8 8 8 8 7 8 8 7 8 8 10 10 8 8 7 7 9 8 9 9 8 7 7 6 4
13 11 12 12 7 7 10 19 11 9 5 1 3 4 2 1 3 5 4 3 6 7 8 8 8 5 4 4 1 0 0 1 1 1 2 2 3 3 2 2 3 2 4 3 4 3 3 4 5 6 10 9 8 9 8 4 6 6 7 7 8 8 8 8 8 8 8 8 8 7 9 9 9 10 9 8 7 7 7 8 8 8 6 6 7 6 5
8 9 6 0 4 12 9 3 2 7 5 1 4 2 2 5 3 3 3 5 4 7 5 4 5 4 6 4 1 3 2 2 2 2 2 2 2 2 3 3 3 3 4 5 5 4 2 3 3 4 4 7 6 7 4 6 7 8 8 8 8 8 8 8 8 7 7 7 7 7 7 9 10 9 9 9 9 6 7 6 7 8 8 9 9 7 5
1 2 1 0 1 3 3 1 0 0 3 1 2 3 1 1 2 6 2 1 5 4 4 5 3 5 2 4 2 2 3 3 2 2 2 2 1 1 2 3 4 4 5 5 5 5 3 2 3 4 3 4 7 5 5 6 7 8 9 9 9 9 8 8 8 8 8 6 6 6 7 6 7 8 11 11 9 9 7 6 7 8 8 8 6 8 5
7 11 3 4 4 3 6 1 2 0 2 2 1 2 1 2 3 2 1 3 3 4 5 4 3 4 3 4 2 3 3 3 3 3 3 1 1 1 3 1 2 4 4 5 4 4 4 1 2 3 4 2 3 6 6 6 6 7 8 9 8 7 8 8 7 8 10 9 8 7 7 6 5 6 6 7 8 9 8 8 8 7 7 8 8 8 8
10 7 5 4 2 4 3 3 1 2 3 0 0 0 3 5 3 3 3 4 5 4 4 3 2 2 2 3 3 3 2 3 3 2 2 2 2 2 1 1 2 3 4 4 4 4 3 1 2 3 3 3 5 6 6 7 7 8 9 9 10 9 9 8 8 8 8 9 9 8 7 7 8 7 6 6 9 10 11 11 10 9 8 9 9 9 8
3 3 1 2 1 1 3 4 6 4 4 5 3 4 6 5 7 5 4 3 3 3 3 2 4 4 2 3 4 4 3 3 3 2 2 1 1 1 2 1 1 3 4 4 4 4 3 0 2 3 3 3 4 7 7 7 8 9 8 7 7 8 8 7 8 7 7 8 8 8 8 6 4 3 7 8 7 5 0 2 5 10 11 10 8 7 8
7 13 9 8 7 3 6 8 12 9 5 5 7 5 5 5 7 5 8 5 4 5 3 1 3 6 4 3 3 5 4 3 3 2 2 2 2 1 1 2 3 3 3 3 3 3 1 1 2 3 3 3 2 3 5 6 8 9 8 8 7 8 7 7 7 7 6 6 6 6 7 7 6 3 3 3 2 4 4 3 2 2 5 6 7 8 8
13 5 11 14 8 6 10 13 6 8 7 7 8 7 6 3 3 4 9 8 5 7 6 4 5 5 6 4 4 6 4 3 2 3 4 3 2 1 1 3 2 3 2 2 3 3 1 1 2 2 2 2 3 2 4 5 6 7 8 7 6 6 6 7 8 8 7 7 6 6 5 6 6 6 6 3 4 5 5 5 6 7 7 6 11 10 8
1 4 13 9 5 6 2 3 8 7 5 6 6 3 3 4 4 4 5 4 9 5 4 6 5 5 6 3 5 7 4 3 3 3 2 2 1 1 1 1 2 3 2 2 2 2 1 1 1 1 2 1 1 1 1 2 3 5 6 7 7 7 7 5 6 6 5 5 5 6 5 5 6 6 7 6 5 6 7 7 8 8 8 11 12 11 10
5 1 4 3 5 4 3 5 6 5 4 5 8 6 5 6 5 4 9 7 4 7 7 6 5 4 6 4 5 6 5 3 3 3 4 3 3 2 1 1 1 1 1 1 2 3 2 2 1 1 1 0 0 1 1 1 2 4 5 4 5 5 5 5 5 6 6 6 6 6 7 7 7 7 9 9 9 7 5 7 9 9 10 11 12 11 12
7 7 6 5 5 5 5 8 6 4 4 4 6 4 5 6 7 8 8 7 6 5 7 6 7 5 4 6 6 4 7 5 3 3 4 4 3 3 2 0 0 1 2 2 3 3 2 2 2 1 1 0 0 0 1 1 2 4 4 4 3 5 6 7 7 6 6 6 7 7 6 7 7 8 8 8 8 9 9 7 6 6 9 11 11 12 13
5 9 12 10 5 2 1 3 7 4 5 5 9 8 6 7 8 9 7 7 6 5 6 5 5 4 5 5 6 5 7 2 4 5 4 4 4 3 1 0 1 1 2 3 3 3 4 3 2 2 1 0 1 1 1 1 1 1 2 3 2 4 7 7 6 7 6 6 6 6 6 7 7 7 7 6 7 10 11 12 12 10 8 8 10 13 10
5 1 2 6 9 10 5 3 8 8 7 7 7 9 6 6 8 9 9 8 8 6 7 4 5 6 7 4 5 5 5 6 6 4 4 3 2 3 3 3 2 2 2 1 0 0 1 1 1 0 0 1 3 3 3 3 3 3 3 3 4 4 4 6 5 5 6 6 6 6 7 7 6 5 4 5 6 8 6 6 7 8 6 6 4 7 12
2 3 3 3 5 9 10 8 9 9 8 5 5 5 7 10 8 9 7 6 3 4 6 5 4 5 6 3 4 5 4 4 4 4 4 3 2 2 2 2 3 2 2 1 1 0 0 0 1 2 2 0 1 2 2 3 4 4 4 4 5 4 4 4 4 4 5 4 5 5 5 5 4 5 4 4 3 4 5 7 7 7 7 6 3 4 7
3 3 8 9 10 12 14 9 8 7 7 5 8 6 5 10 10 6 6 5 5 7 2 1 4 5 3 4 3 3 4 4 4 3 4 3 3 1 2 3 4 3 2 1 1 1 0 0 0 0 1 1 2 2 3 3 4 3 4 3 3 4 4 4 4 5 4 6 5 6 5 6 5 5 6 5 6 6 6 7 8 8 9 9 8 10 10
5 7 9 8 10 8 11 9 7 6 6 5 6 7 6 8 9 7 5 4 5 5 4 4 4 4 5 3 1 1 2 3 4 4 3 3 2 2 2 3 3 4 4 4 3 0 0 0 0 1 2 3 4 4 4 4 3 2 2 2 2 2 4 4 4 4 5 4 5 6 6 6 7 7 7 6 7 7 8 7 7 7 7 8 10 10 8
13 10 10 8 8 10 7 5 8 6 5 4 6 6 5 7 7 7 4 4 3 3 3 5 5 4 3 2 2 3 4 4 4 5 5 5 4 4 3 2 1 1 2 2 2 1 0 0 2 3 1 2 3 3 4 3 3 4 5 3 4 3 4 5 5 5 5 5 5 6 7 7 7 7 7 8 9 9 8 8 9 9 8 10 10 9 7
16 11 7 7 8 7 7 3 8 5 5 6 5 4 4 4 5 5 4 4 4 4 5 4 4 5 5 4 5 5 5 3 4 5 5 5 4 3 2 1 1 2 2 1 1 1 1 3 3 0 1 2 3 3 4 4 4 5 4 4 4 4 4 4 5 5 5 5 6 7 6 6 6 7 9 9 8 7 8 9 9 8 9 9 9 7 8
5 6 8 3 4 8 9 4 3 8 5 5 5 6 6 6 6 6 6 5 5 6 6 6 6 6 5 5 5 5 5 4 5 5 5 5 5 4 3 2 2 2 3 3 3 3 2 3 2 1 1 2 2 3 3 3 4 4 3 3 4 3 4 4 5 5 5 7 7 6 6 7 7 8 7 7 7 7 7 8 7 7 8 8 7 6 8
11 11 10 9 10 9 5 5 7 7 8 8 7 7 7 7 7 7 6 7 7 4 4 4 5 6 5 6 6 6 6 5 3 3 4 4 4 5 5 4 3 2 3 4 2 3 2 3 2 2 1 2 3 3 3 4 4 4 3 4 4 4 5 5 5 6 7 6 5 6 6 7 7 6 6 7 7 7 7 7 8 7 8 8 7 7 8
9 11 10 11 10 10 12 12 8 6 8 8 8 7 7 6 7 7 8 6 3 3 4 4 3 3 4 4 4 4 4 3 3 3 4 4 4 4 4 5 6 6 5 6 3 3 4 2 3 2 1 1 2 3 3 3 3 3 3 4 4 4 5 5 6 5 6 5 6 7 6 7 6 7 7 7 7 7 8 8 8 7 8 9 10 11 9
12 10 8 9 9 10 11 10 9 10 10 10 7 6 7 7 7 5 4 4 4 4 4 4 4 4 3 2 2 2 3 3 3 3 3 4 4 5 5 4 4 5 5 5 2 3 5 3 3 3 1 1 2 3 3 5 3 3 2 3 4 3 4 4 5 5 6 5 6 6 7 6 6 6 7 7 8 7 7 8 7 6 6 6 8 9 9
9 10 10 9 7 9 10 8 7 8 8 10 9 8 6 4 4 4 4 5 5 4 3 3 2 1 1 1 2 4 3 4 4 5 5 5 5 6 3 3 4 3 3 1 2 4 4 4 5 2 1 1 3 2 3 5 5 3 4 4 4 4 5 5 5 6 6 5 6 6 6 7 7 7 7 7 8 8 7 7 7 7 7 7 7 8 9
10 8 9 7 7 7 7 7 8 9 10 8 5 6 6 5 4 4 5 5 5 5 4 3 2 2 3 4 3 2 3 5 5 5 5 6 5 5 5 4 4 3 3 4 5 5 5 4 2 1 2 4 3 3 3 4 6 4 4 4 4 4 5 5 5 6 6 6 5 6 6 6 7 7 7 7 7 8 8 9 9 8 9 10 11 10 11
8 9 9 8 9 7 8 8 8 9 7 7 7 7 5 5 5 5 4 5 6 6 5 4 4 4 4 4 3 2 4 5 5 6 7 6 6 3 2 2 4 5 5 6 6 5 7 7 5 3 3 4 3 3 4 4 4 4 4 5 5 5 5 6 5 5 5 5 6 7 7 8 7 7 8 7 7 8 8 9 10 10 10 11 15 13 9
6 5 4 6 6 6 5 8 8 6 7 7 6 5 5 5 4 5 6 5 5 5 5 5 4 3 4 4 4 5 5 5 5 6 6 4 3 4 4 3 2 4 6 6 5 6 8 7 5 5 6 4 4 4 3 4 4 3 4 5 5 5 5 5 6 6 6 6 7 7 7 7 7 8 8 7 8 8 9 9 10 10 10 11 13 12 9
5 5 5 6 6 6 6 6 4 6 6 6 6 5 6 6 6 6 4 4 4 5 5 5 5 4 4 4 5 4 4 3 3 4 4 4 4 3 5 2 2 5 8 8 7 6 6 5 6 5 5 5 4 5 5 4 4 4 4 5 5 5 5 5 6 6 6 6 6 6 7 6 7 7 7 8 8 8 8 9 9 9 9 9 10 10 10
6 6 6 5 3 4 5 5 5 4 2 3 5 5 4 3 5 4 3 4 4 5 4 4 3 4 3 3 4 5 4 4 5 5 5 4 6 6 5 3 5 6 9 7 6 4 5 5 5 5 6 7 6 7 6 4 3 5 5 5 6 5 5 5 6 5 6 6 6 6 6 7 7 8 8 8 8 8 8 9 10 9 9 10 9 8 9
4 4 4 4 5 3 3 3 3 5 6 5 5 4 3 3 4 5 5 5 5 4 5 5 5 5 5 4 4 5 5 5 6 5 5 6 2 2 3 2 4 5 8 7 5 5 5 5 5 6 8 9 9 9 6 4 4 4 4 5 5 5 5 5 6 5 6 6 6 6 7 7 7 7 8 8 8 8 8 8 8 8 8 7 8 7 7
4 3 4 4 3 4 4 3 5 5 3 3 4 3 3 6 5 4 4 5 5 4 4 4 5 5 5 4 5 5 5 5 5 4 5 7 6 1 1 5 6 6 7 9 6 5 5 5 7 9 8 8 9 8 5 4 4 4 4 5 5 5 5 5 6 6 6 6 6 6 7 7 7 7 7 8 8 8 8 8 8 8 8 8 8 9 8
3 2 2 3 5 4 3 1 2 2 3 3 2 1 2 4 5 4 3 3 4 4 3 3 4 5 5 5 6 6 5 6 6 5 7 6 6 5 5 6 6 5 9 9 5 6 5 8 10 10 9 9 8 6 5 4 5 4 5 5 5 6 5 5 5 6 6 6 6 6 6 6 7 7 7 7 7 8 7 6 5 6 7 7 7 8 8
4 4 4 3 4 2 3 2 3 2 2 2 4 3 3 4 3 3 3 4 3 3 4 5 5 6 5 4 4 5 6 6 4 6 5 2 2 3 6 7 8 9 8 6 6 5 6 7 7 10 10 10 8 5 5 4 5 4 6 5 5 5 5 5 5 5 6 6 7 7 7 8 7 7 7 7 7 7 6 7 7 6 6 6 7 6 7
3 3 4 3 3 4 2 2 2 3 3 2 1 3 3 3 4 4 4 4 4 4 4 4 5 5 5 4 4 4 4 3 8 7 3 2 4 3 5 5 7 10 11 7 7 6 9 11 11 11 11 10 7 5 4 4 4 4 5 5 5 5 5 5 5 5 6 6 7 7 7 7 7 7 7 7 7 6 6 6 6 6 6 7 8 7 8
2 2 4 3 2 5 5 4 5 5 4 3 3 4 3 4 4 4 4 4 6 5 4 4 5 5 4 5 4 5 4 4 5 7 3 6 7 6 6 6 9 10 8 6 6 6 7 10 10 11 11 8 5 6 4 4 4 5 5 5 5 5 5 5 5 5 5 6 6 6 6 7 6 6 6 6 5 5 5 5 6 6 6 6 6 5 7
2 1 4 4 4 4 3 4 4 4 3 4 5 4 4 4 6 6 5 6 6 6 5 4 5 5 4 5 3 4 3 3 5 6 6 6 5 6 6 6 6 8 8 7 5 6 6 9 8 8 7 5 6 5 5 5 4 5 4 6 5 5 5 6 5 6 6 6 6 6 6 6 6 6 4 5 5 5 5 6 5 5 7 6 5 7 7
3 3 4 4 3 3 2 3 5 4 4 4 3 3 2 2 3 6 6 7 6 7 7 6 6 7 6 4 5 5 4 3 4 5 5 6 5 5 6 6 6 6 7 6 6 6 6 6 6 6 6 5 6 5 5 5 5 5 5 4 4 5 5 6 5 5 5 6 6 6 6 5 5 5 5 5 6 5 5 5 5 6 6 7 7 6 6
3 3 3 3 4 4 4 5 4 4 3 3 2 2 2 3 4 5 5 5 5 5 5 7 8 5 3 5 5 5 5 5 6 6 6 6 6 5 7 7 6 6 6 5 6 5 5 5 5 6 6 6 5 5 5 6 5 5 4 5 4 5 5 6 6 5 5 5 5 5 5 5 4 5 5 5 5 5 5 5 5 5 5 6 6 6 6
Wind_Direction
189 148 139 153 165 183 178 182 179 184 173 169 192 220 225 147 209 240 235 167 215 237 241 244 249 219 244 270 267 246 260 262 233 207 234 240 235 225 214 220 216 215 216 213 209 206 206 193 194 190 183 185 182 179 172 169 166 174 166 157 159 159 158 159 160 153 144 139 133 133 134 135 138 142 138 129 125 126 127 127 125 126 127 126 122 111 103
163 205 156 155 151 169 164 185 191 190 181 201 216 233 231 202 240 261 296 232 239 206 236 245 262 116 211 238 299 316 321 305 301 263 259 252 249 237 230 225 220 218 220 216 213 207 202 198 194 188 185 184 182 178 178 177 177 173 162 168 161 163 164 162 153 151 144 141 141 139 141 146 148 143 136 133 131 130 131 129 127 128 122 118 118 122 118
198 295 194 153 151 148 181 199 195 198 200 209 219 227 235 240 258 253 260 270 272 242 237 279 297 282 293 305 298 270 237 234 222 229 241 243 239 238 236 233 227 224 221 220 214 211 211 202 196 186 187 185 183 186 184 179 178 170 164 161 164 162 166 157 150 145 144 146 144 149 150 145 145 141 137 136 134 132 133 133 132 130 124 120 118 118 118
258 324 152 145 66 112 174 203 207 205 204 214 221 225 219 222 242 244 281 266 257 109 236 267 266 268 269 270 271 275 255 215 218 231 248 245 242 234 231 230 224 222 221 218 216 215 209 202 193 190 187 186 183 194 181 179 172 159 164 164 165 170 157 148 150 152 152 149 152 153 151 152 148 142 137 136 139 140 137 132 131 125 118 120 120 120 113
228 275 123 128 97 80 316 249 218 202 204 213 218 225 218 218 228 240 239 244 138 143 202 243 252 245 243 253 252 251 262 244 218 232 242 248 243 237 232 226 222 223 220 219 218 217 205 200 197 199 184 177 196 189 175 172 144 163 172 170 165 160 155 157 159 158 156 159 157 157 159 151 145 140 142 142 144 146 144 140 131 124 128 123 122 119 118
204 199 140 114 128 177 232 230 160 171 199 205 216 226 221 225 209 228 235 251 209 205 216 242 252 256 235 228 241 211 221 241 242 242 243 246 245 241 236 226 222 226 224 224 219 214 210 205 200 185 182 188 182 157 155 152 165 173 169 171 167 163 159 166 165 163 162 162 161 158 149 144 145 147 151 156 149 138 133 133 127 125 124 122 123 122 124
172 188 119 138 201 225 238 106 164 181 195 202 214 224 216 222 226 236 243 243 233 217 223 233 240 245 260 317 236 236 224 211 222 233 239 241 240 235 234 234 230 223 219 219 214 211 212 198 177 168 187 178 157 157 162 166 172 168 174 164 169 168 169 169 166 165 165 164 157 152 150 150 151 155 154 144 144 148 147 144 143 141 140 131 127 125 125
53 111 170 173 222 249 73 177 205 189 194 207 207 235 235 230 224 225 231 235 228 220 230 240 310 55 286 304 254 235 236 208 216 227 238 240 227 233 232 224 227 212 209 210 209 214 173 161 181 184 184 166 163 167 157 163 164 174 173 176 176 168 172 173 173 171 166 161 157 156 156 155 156 156 155 158 152 149 129 116 110 114 106 115 129 130 130
160 190 182 218 354 350 264 224 224 161 162 140 178 219 240 227 225 222 232 239 241 239 245 242 240 290 354 310 280 244 220 229 228 224 234 228 226 230 251 211 233 216 212 209 207 172 170 180 176 187 169 162 158 151 163 170 170 174 175 182 182 179 180 177 175 171 169 165 164 163 160 157 160 160 157 150 146 146 132 135 134 132 134 128 132 132 134
130 129 195 354 276 263 243 207 134 138 155 161 168 191 255 226 221 215 217 225 227 229 230 230 195 104 290 279 261 241 225 224 232 236 248 268 258 262 255 257 252 223 206 193 180 175 175 182 183 165 161 162 160 164 172 169 169 176 181 191 185 185 185 179 175 172 174 169 164 162 163 166 163 157 147 138 150 162 147 146 139 138 131 121 122 131 134
89 145 173 205 207 234 138 156 167 174 156 140 126 106 259 216 208 205 206 219 226 223 217 218 137 162 224 244 252 242 191 231 230 236 249 241 243 246 238 230 231 214 208 186 176 164 165 182 183 164 160 161 164 173 170 173 176 181 192 191 187 188 183 175 176 172 167 163 165 166 168 166 160 156 159 156 148 137 132 127 130 132 130 124 123 119 121
191 185 189 217 215 243 230 176 175 172 148 123 102 242 262 169 192 196 183 205 216 221 214 184 168 191 222 237 247 221 204 236 130 200 251 281 295 282 263 254 239 227 156 113 135 170 189 194 159 160 159 164 171 174 178 172 184 195 198 196 187 173 167 167 165 163 165 166 168 170 167 154 151 149 137 135 147 138 129 131 134 134 130 130 127 125 121
185 178 236 318 286 268 239 216 179 146 147 132 151 221 224 201 198 192 178 204 215 210 187 157 199 215 214 222 255 43 17 78 78 16 15 267 266 284 304 286 211 147 174 174 182 193 188 152 156 159 161 164 180 181 175 180 201 205 191 158 155 165 156 155 159 162 160 167 164 161 153 149 139 136 147 147 141 139 136 133 130 132 134 132 124 121 119
184 199 202 232 256 235 180 267 162 171 115 191 212 209 184 148 185 183 192 205 188 145 179 188 214 228 217 235 319 24 54 89 58 329 325 335 349 319 302 305 147 137 149 144 119 111 133 150 153 159 162 174 176 176 180 205 207 134 140 152 145 145 151 152 151 152 154 145 144 143 135 137 141 141 136 138 143 141 140 141 140 138 139 137 130 123 118
43 62 203 29 257 247 132 118 103 299 176 230 189 170 4 190 174 159 192 182 201 162 190 207 214 223 177 218 250 343 52 56 45 11 11 10 356 349 355 15 17 108 133 128 124 127 133 146 154 160 164 173 179 179 202 202 142 140 139 141 143 143 144 148 153 152 149 148 147 147 150 155 151 148 149 145 145 143 141 141 142 144 150 146 141 134 123
182 176 188 206 226 93 157 139 178 205 193 192 200 116 138 237 162 168 153 221 188 185 185 194 223 219 228 285 284 338 43 91 75 59 19 9 11 6 11 38 23 70 88 82 84 71 105 136 155 163 169 176 180 190 203 140 131 128 135 136 139 143 149 152 149 152 153 152 150 154 158 156 154 149 151 148 143 150 149 147 149 149 155 153 123 133 146
172 204 208 273 209 157 175 158 205 192 163 139 167 125 153 157 219 175 143 200 187 201 170 168 175 200 223 206 182 183 189 124 113 94 48 24 10 16 26 12 21 66 105 110 95 74 68 118 141 161 177 173 176 192 172 134 141 141 138 141 145 152 154 154 154 150 146 152 156 158 162 159 154 155 149 152 148 157 151 153 155 157 157 157 163 162 151
255 300 169 241 157 216 209 36 194 292 162 69 96 111 86 264 174 166 160 199 180 173 171 132 214 210 209 189 197 127 119 125 98 106 80 37 24 38 52 45 41 88 93 95 104 105 74 94 138 151 169 162 180 184 141 148 145 146 145 147 154 157 154 154 153 147 147 148 154 161 164 174 172 166 161 163 159 158 161 159 158 159 163 171 164 163 165
148 238 151 144 191 221 218 239 323 293 319 231 147 136 141 109 119 110 43 160 149 167 165 192 169 204 195 196 171 129 110 116 128 124 122 71 24 73 87 27 61 84 99 96 104 118 119 48 122 142 151 131 141 132 149 139 140 140 147 151 152 151 157 154 151 159 161 164 165 166 171 166 161 162 164 161 156 159 166 162 163 162 164 168 166 165 170
174 235 174 194 286 261 246 213 275 247 223 92 69 139 134 126 106 105 120 113 104 120 149 185 165 182 171 158 144 120 128 136 145 135 139 142 72 21 38 30 87 86 99 125 135 137 146 155 117 123 120 111 129 134 138 144 142 145 152 163 162 166 162 160 165 171 171 167 166 168 176 172 166 166 175 175 170 175 175 174 166 174 174 177 179 179 174
281 22 284 295 32 3 281 251 256 232 186 161 132 142 131 136 115 98 65 57 123 107 109 119 130 116 142 159 151 144 133 110 124 168 167 138 105 80 78 26 74 122 129 127 149 144 149 130 101 102 105 120 140 142 147 148 149 152 158 157 153 155 160 157 170 175 174 172 175 172 171 177 181 173 177 179 180 169 136 161 191 175 176 186 189 181 163
213 214 193 160 124 220 244 241 226 205 183 163 140 134 127 139 132 131 106 76 65 78 66 113 149 126 132 103 122 110 125 143 148 138 119 102 107 89 64 67 79 77 91 130 133 122 123 61 96 106 104 109 126 138 145 154 155 157 157 155 157 167 169 173 169 169 172 171 173 170 172 174 161 112 55 110 72 157 169 173 183 237 202 195 185 162 155
225 195 140 186 184 190 200 198 179 138 160 154 149 162 153 145 127 140 126 116 72 55 40 27 89 106 118 131 106 99 95 118 156 156 145 140 125 124 100 86 59 73 68 94 105 106 94 50 78 91 107 111 119 137 152 161 165 159 153 157 166 165 168 184 180 179 174 173 177 168 172 169 167 158 121 127 143 144 153 160 165 166 160 150 148 157 153
293 158 180 173 148 176 235 131 138 140 145 138 118 107 103 122 125 108 89 102 123 110 72 52 49 98 100 111 113 107 93 61 80 74 68 65 103 115 88 104 131 110 95 100 114 143 116 94 92 89 110 101 122 140 136 160 154 152 164 164 177 185 184 179 172 176 172 168 164 169 173 170 174 167 158 138 135 153 157 159 157 152 146 145 148 151 147
218 219 131 114 104 84 49 96 107 118 134 131 124 124 126 108 84 90 96 82 63 107 99 76 43 48 99 86 88 100 109 83 68 99 90 86 73 84 84 89 97 140 172 143 110 113 123 117 120 126 138 205 59 74 95 126 138 153 176 179 178 173 172 171 171 169 169 171 176 174 176 178 182 178 173 168 157 151 166 176 168 159 157 159 160 163 161
125 102 86 87 87 89 127 92 64 87 89 105 100 85 77 95 111 92 83 92 84 74 91 90 76 33 64 83 74 91 79 69 77 95 86 83 74 63 50 324 224 151 121 107 112 121 137 172 174 161 166 274 47 63 91 138 157 175 182 188 176 163 174 178 173 182 183 181 180 187 185 191 194 191 193 184 171 156 150 152 160 168 175 174 170 170 173
103 130 114 75 54 75 235 144 172 142 95 83 102 108 106 100 91 93 90 78 76 68 75 78 91 85 58 60 74 59 91 90 56 49 54 51 39 19 345 17 103 108 114 120 132 158 163 167 163 171 191 63 100 93 106 113 146 157 176 169 152 151 160 168 182 188 185 181 184 183 187 198 200 201 196 189 171 172 174 175 175 173 172 179 184 179 174
131 26 15 148 185 187 171 90 100 99 98 107 111 108 119 110 95 87 80 77 68 61 56 41 65 73 71 24 74 65 52 60 70 46 47 31 8 7 18 34 47 59 56 59 70 87 129 147 158 142 55 115 148 149 147 143 160 179 173 176 170 174 172 178 176 182 180 184 182 185 194 200 204 208 200 187 186 192 189 178 169 166 168 176 160 181 172
352 4 31 55 102 108 107 112 92 91 84 70 84 98 101 84 72 77 68 68 85 78 63 44 45 54 90 66 75 92 91 91 79 60 57 44 41 40 45 62 67 65 74 63 22 357 20 25 14 12 9 109 155 154 145 161 182 192 191 192 188 189 180 177 177 172 174 171 184 185 187 192 196 201 198 201 203 196 193 188 181 179 168 157 137 200 184
49 71 89 92 107 119 112 103 112 109 103 102 92 63 75 103 85 69 75 57 68 73 49 60 69 50 61 74 57 92 92 82 79 70 75 84 106 141 119 137 117 106 84 42 292 279 160 59 55 28 287 201 178 167 172 180 206 202 203 199 195 194 186 170 163 166 166 177 177 171 178 190 197 189 194 203 207 203 200 199 192 176 172 182 185 183 182
79 83 91 98 95 85 101 114 107 102 94 81 96 92 63 83 104 100 87 74 66 74 37 64 65 58 43 43 14 38 59 67 73 80 83 81 64 40 20 18 32 9 356 336 329 261 124 94 179 234 237 183 172 174 172 187 193 189 190 196 192 198 184 174 173 179 181 173 176 177 186 186 198 189 207 207 206 207 209 202 193 189 188 184 191 195 188
98 78 71 72 88 99 89 99 107 100 93 90 86 88 121 122 124 130 129 94 90 103 77 50 41 18 1 14 43 49 62 63 67 62 54 45 29 17 16 3 358 305 291 331 359 31 70 20 288 264 199 167 173 179 176 181 171 180 212 197 188 198 188 180 183 183 176 186 188 193 201 193 201 195 204 209 211 209 205 199 201 198 192 193 198 197 168
109 94 75 86 86 84 98 128 126 120 102 89 84 94 73 70 96 106 112 111 85 50 53 35 11 1 3 16 28 32 33 57 85 76 55 47 35 6 331 307 270 282 293 319 283 288 267 249 258 263 171 187 175 181 188 186 183 202 202 187 192 188 192 199 182 181 179 188 199 207 200 205 204 205 216 215 211 205 203 206 205 201 201 201 200 180 174
89 119 131 123 117 138 146 164 119 111 94 75 81 76 71 64 77 81 75 70 63 51 29 4 346 348 5 26 31 25 13 31 31 9 10 11 4 0 355 314 309 310 290 269 258 257 273 268 282 268 218 178 191 181 187 189 196 204 195 182 185 189 197 207 188 192 199 211 208 206 205 207 210 214 218 216 214 211 211 209 210 204 202 201 195 178 179
77 72 64 54 38 34 37 102 140 139 130 114 90 70 68 66 67 71 64 65 55 26 357 354 350 356 18 33 37 33 38 53 30 355 348 351 342 333 315 329 338 13 349 331 319 312 299 283 271 253 202 193 184 193 191 198 195 191 197 188 193 198 201 195 199 204 211 217 199 203 212 213 220 216 216 214 215 211 211 213 209 202 200 197 190 173 184
51 66 52 46 32 36 46 41 38 69 88 91 89 84 74 63 62 55 57 56 39 19 11 359 358 34 46 36 36 26 28 20 9 353 350 343 335 319 331 358 0 7 9 356 37 21 344 325 281 231 195 196 214 221 207 199 197 198 196 193 202 210 204 209 212 219 216 206 210 214 214 221 219 216 212 215 213 210 212 215 209 207 204 201 180 159 173
35 56 59 54 48 45 43 39 45 63 65 74 72 66 67 55 58 62 69 59 43 29 14 354 19 46 43 18 356 26 50 35 19 358 334 334 330 334 347 352 6 13 8 17 9 6 357 1 330 270 216 213 230 231 233 200 199 200 197 197 209 209 216 220 223 219 227 216 218 217 218 215 221 220 217 215 217 217 211 214 213 208 208 196 186 164 164
45 53 55 54 43 50 48 41 26 53 76 74 60 61 55 54 47 57 62 61 43 20 7 17 27 25 357 6 61 51 37 21 3 345 332 338 345 342 340 357 335 3 358 335 328 344 335 324 334 337 288 265 258 250 236 218 204 185 193 211 209 217 221 226 230 231 229 228 222 218 218 216 217 219 217 215 220 218 213 211 205 201 194 186 183 186 192
45 39 52 49 49 49 54 42 41 43 42 62 68 66 49 43 46 61 63 55 39 20 15 11 326 133 77 55 48 32 16 356 344 336 327 336 348 20 306 288 289 312 313 337 356 340 337 340 328 324 291 274 275 265 246 232 215 196 204 208 218 219 226 229 229 234 231 224 221 226 224 225 223 225 220 218 215 215 216 210 205 201 199 194 185 192 196
48 39 31 32 44 32 43 51 47 48 42 41 49 43 13 25 26 49 47 45 26 22 6 1 27 47 26 30 18 0 347 340 330 330 328 321 323 326 296 327 38 24 28 20 9 354 346 343 342 313 284 285 273 267 257 235 219 206 204 212 218 226 229 231 234 235 236 224 229 228 226 227 228 226 225 220 213 213 213 210 210 210 210 199 195 200 196
55 52 38 53 54 48 40 48 48 45 41 37 38 31 23 26 11 46 39 24 355 8 12 25 29 37 24 1 339 310 320 314 334 328 319 324 332 6 30 335 26 7 6 11 8 357 350 341 340 325 307 300 293 269 266 250 229 211 216 216 221 224 231 229 230 232 230 231 230 227 228 228 229 230 227 223 221 219 217 216 215 216 212 208 196 195 206
40 52 50 52 41 37 31 29 43 48 41 37 23 21 17 16 38 43 20 3 359 13 20 17 26 19 349 334 317 314 320 318 344 330 330 321 300 318 340 305 39 17 5 8 357 351 341 330 325 317 311 305 299 278 265 251 232 227 226 227 227 227 229 233 234 236 234 232 233 234 235 226 228 232 229 226 228 224 221 222 223 223 220 208 202 202 195
29 32 40 46 36 31 29 31 39 39 42 32 34 17 17 23 35 31 20 10 9 2 8 2 0 2 350 345 339 337 332 341 342 327 325 290 251 223 232 278 359 351 348 348 342 343 328 315 316 306 308 308 298 292 281 255 234 229 230 235 233 234 233 236 237 239 235 236 238 237 231 230 232 231 231 231 231 227 224 223 224 222 217 207 207 204 203
53 47 44 48 39 17 23 37 33 20 38 12 10 360 22 35 33 30 17 7 357 358 354 351 349 346 344 343 349 338 332 339 337 334 329 317 327 27 93 57 336 329 343 337 334 325 317 307 300 296 300 299 299 294 281 257 243 232 230 231 235 236 237 241 243 239 237 238 241 237 236 238 237 235 235 237 235 232 227 225 225 221 217 213 213 203 200
55 38 33 39 43 35 25 25 25 17 346 313 326 353 43 33 17 19 17 8 349 335 338 338 330 331 325 331 315 302 295 290 290 319 327 318 331 272 74 34 351 340 331 329 323 321 313 307 304 303 300 299 294 295 283 265 250 240 232 234 235 236 238 240 239 241 241 244 243 244 243 244 243 242 240 239 235 233 228 223 219 213 210 210 200 186 192
49 36 24 37 34 28 354 319 282 283 288 299 353 85 53 36 14 351 353 352 336 308 300 300 298 295 293 295 295 288 277 275 259 238 229 226 247 281 346 347 324 324 316 321 313 309 301 297 303 308 302 298 296 289 278 265 255 253 243 236 236 237 239 240 242 242 244 244 245 247 247 248 247 247 240 239 236 235 233 223 215 210 205 206 204 201 196
8 15 21 18 341 343 338 318 282 303 334 42 30 343 337 350 350 338 317 308 291 280 285 283 280 281 278 278 281 306 313 305 274 249 226 247 323 341 308 313 310 311 315 309 299 294 295 301 304 306 307 301 298 285 268 259 254 243 246 241 242 237 243 240 241 244 246 246 249 249 249 247 246 245 242 239 234 229 221 213 214 208 202 200 201 194 197
7 7 356 1 333 317 347 0 42 40 35 13 288 294 301 322 329 318 314 312 315 317 313 305 298 296 300 296 272 250 240 275 316 317 117 104 306 321 320 319 309 314 312 311 306 301 305 306 308 309 307 308 302 284 278 263 254 248 244 247 245 244 242 241 245 243 244 244 247 247 248 249 246 242 236 231 228 220 210 210 212 207 206 194 192 199 197
16 334 320 339 348 356 9 7 5 2 346 341 0 322 336 339 315 317 320 325 330 328 322 313 306 300 298 289 281 271 257 231 217 256 311 351 320 314 305 306 310 312 313 309 310 307 306 312 315 317 317 314 307 295 280 270 257 253 247 244 244 243 241 244 243 241 246 251 251 251 250 248 244 237 232 229 218 214 207 209 210 206 207 205 206 207 207
311 0 352 348 350 345 342 344 334 295 291 324 316 318 343 349 343 326 335 333 324 316 312 308 304 299 300 302 292 283 279 267 275 279 282 288 297 300 296 303 298 303 305 306 306 309 316 321 323 317 318 316 311 304 295 281 272 264 259 257 256 256 256 256 259 261 261 261 262 259 254 248 242 236 229 225 219 210 210 209 211 212 207 206 209 205 210
339 349 327 320 317 296 281 261 261 296 312 301 296 312 330 344 298 298 315 310 323 322 312 313 312 304 304 302 305 308 306 299 287 281 285 289 287 294 296 294 297 297 301 303 304 304 309 313 308 309 313 314 315 310 305 293 284 278 276 270 266 264 269 268 266 263 263 260 258 256 252 245 240 232 227 221 217 215 212 210 211 212 211 213 212 212 214
287 274 287 297 296 295 292 287 280 270 262 274 271 267 284 272 282 291 288 283 275 277 291 309 306 293 285 296 299 300 303 299 298 299 291 286 288 285 289 295 297 298 298 295 294 294 295 294 304 307 308 308 309 306 303 301 298 289 284 279 277 275 270 270 272 270 271 269 263 260 258 256 250 245 241 238 228 223 221 218 214 215 214 217 216 218 217